User: anonymous   Login
Location: Friaudour
(46.0460°N, 1.2873°E)
Time: 23:43:36
(UTC+00:00)
Language:

BREEZE-M DEB (TANK) - Orbit

View from above orbital plane
View from above orbital plane
View from above satellite
View from above satellite

Ground track
Ground track

The orbit data is extracted from the following two-line orbital elements,

1 37604U 11021C   20271.06272080 +.00002283 +00000-0 +45444-3 0  9991
2 37604 049.2132 156.6620 6027116 120.3903 312.2715 04.00048016134248
Epoch (UTC): 27 September 2020 01:30:19
Eccentricity: 0.6027116
inclination: 49.2132°
perigee height: 281 km
apogee height: 20486 km
right ascension of ascending node: 156.6620°
argument of perigee: 120.3903°
revolutions per day: 4.00048016
mean anomaly at epoch: 312.2715°
orbit number at epoch: 13424

The dashed part of the orbit path shows where the satellite is in the earth's shadow,  

DLR